• Join FlightAware (Why Join?)
  • Login
  • US Flag 
12:40PM EST


 

Airport Tracker/Info


-or-


 

Live Flight TrackerFlight Track Log ✈ CHQ5332 ✈ 03-Mar-2014 ✈ KLSE - KORD

Flight Track Log - Related Links

Times and Time Zones

All times are in EST time to prevent confusion due to time zone crossing. See the CHQ5332 flight status page for this flight to view local times or setup timezone preferences in your user account.

Time Position Orientation Groundspeed Altitude Reporting Facility
EST Latitude Longitude Course Direction KTS MPH feet Rate Location/Type
08:41PM 43.8103 -91.1500 114° Southeast 235 270 6,100  Level Minneapolis Center
08:42PM 43.7700 -91.0442 118° Southeast 272 313 9,600 2,758 Climbing Minneapolis Center
08:43PM 43.7319 -90.9392 117° Southeast 312 359 11,800 2,565 Climbing Minneapolis Center
08:44PM 43.8274 -91.1599 119° Southeast  Level Estimated
08:45PM 43.7754 -91.0633 115° Southeast  Level Estimated
08:45PM 43.6869 -90.8128 116° Southeast 346 398 14,900  Level Minneapolis Center
08:46PM 43.7428 -91.0029 125° Southeast  Level Estimated
08:46PM 43.6419 -90.6878 116° Southeast 347 399 17,900  Level Minneapolis Center
08:47PM 43.5994 -90.5739 117° Southeast 347 399 20,800 2,371 Climbing Minneapolis Center
08:48PM 43.5553 -90.4500 116° Southeast 357 411 22,800 1,065 Climbing Minneapolis Center
08:49PM 43.5033 -90.3119 117° Southeast 400 460 23,000 98 Climbing Minneapolis Center
08:50PM 43.4483 -90.1567 116° Southeast 435 501 23,000  Level Minneapolis Center
08:51PM 43.3894 -89.9975 117° Southeast 462 532 23,000  Level Minneapolis Center
08:52PM 43.2869 -89.8442 133° Southeast 461 531 23,000 -387 Level Minneapolis Center
08:53PM 43.1961 -89.7244 136° Southeast 460 529 22,200 -1,805 Descending Minneapolis Center
08:54PM 43.1050 -89.6044 136° Southeast 460 529 19,300 -2,703 Descending Minneapolis Center
08:54PM 43.0700 -89.5583 136° Southeast 446 513 18,100 -2,739 Descending Chicago Center
08:55PM 42.9678 -89.4233 136° Southeast 431 496 15,100 -2,613 Descending Chicago Center
08:56PM 42.8814 -89.3328 142° Southeast 407 468 12,700 -1,500 Descending Chicago Center
08:57PM 42.7797 -89.3131 172° South 374 430 12,000 -774 Descending Chicago Center
08:58PM 42.6906 -89.2389 149° Southeast 380 437 11,100 -919 Descending Chicago Center
08:59PM 42.6083 -89.1550 143° Southeast 375 432 10,100 -484 Descending Chicago Center
09:00PM 42.5422 -89.0528 131° Southeast 377 434 10,100 -48 Level Chicago Center
09:02PM 42.4961 -88.8997 112° Southeast 369 425 10,000 -48 Descending Chicago Center
09:03PM 42.4589 -88.7750 112° Southeast 361 415 10,000  Level Chicago Center
09:04PM 42.4217 -88.6517 112° Southeast 356 410 10,000  Level Chicago Center
09:05PM 42.3836 -88.5303 113° Southeast 354 407 10,000  Level Chicago Center
09:06PM 42.3214 -88.4019 123° Southeast 363 418 10,000  Level Chicago Center
09:07PM 42.2553 -88.3061 133° Southeast 352 405 10,000  Level Chicago Center
09:08PM 42.1903 -88.2089 132° Southeast 350 403 10,000 -387 Level Chicago Center
09:09PM 42.1292 -88.1136 131° Southeast 305 351 9,200 -1,069 Descending Chicago Center
09:09PM 42.1167 -88.0500 105° East 291 335 8,200 -1,320 Descending Chicago TRACON
09:10PM 42.0833 -87.9500 114° Southeast 274 315 7,000 -567 Descending Chicago TRACON
09:11PM 42.0833 -87.8500 90° East 261 300 7,000 -476 Level Chicago TRACON
09:12PM 42.0833 -87.7500 90° East 232 267 6,000 -1,150 Descending Chicago TRACON
09:13PM 42.0667 -87.6833 109° East 229 264 4,700 -1,143 Descending Chicago TRACON
09:15PM 42.0333 -87.7167 217° Southwest 190 219 3,600 -1,000 Descending Chicago TRACON
09:15PM 42.0167 -87.7667 246° West 190 219 2,700 -900 Descending Chicago TRACON
09:17PM 42.0000 -87.8333 251° West 133 153 1,800 -810 Descending Chicago TRACON
09:18PM 42.0000 -87.8833 270° West 131 151 1,000 -800 Descending Chicago TRACON